owner,sensor,date,latitude,longitude,vertical_datum,sea_water_temperature,qcFlag 
SCCF RECON,ioos:station:SCCF:11:1,2013-01-01T00:00:00Z,26.4679,-82.0631,1.74,17.43,2 
SCCF RECON,ioos:station:SCCF:11:1,2013-01-01T01:00:00Z,26.4679,-82.0631,1.74,17.6,2 
SCCF RECON,ioos:station:SCCF:11:1,2013-01-01T02:00:00Z,26.4679,-82.0631,1.74,17.47,2 
SCCF RECON,ioos:station:SCCF:11:1,2013-01-01T03:00:00Z,26.4679,-82.0631,1.74,17.56,2 
SCCF RECON,ioos:station:SCCF:11:1,2013-01-01T04:00:00Z,26.4679,-82.0631,1.74,17.21,2 
SCCF RECON,ioos:station:SCCF:11:1,2013-01-01T05:00:00Z,26.4679,-82.0631,1.74,17.22,2 
SCCF RECON,ioos:station:SCCF:11:1,2013-01-01T06:00:00Z,26.4679,-82.0631,1.74,17.34,2 
SCCF RECON,ioos:station:SCCF:11:1,2013-01-01T07:00:00Z,26.4679,-82.0631,1.74,17.1,2 
SCCF RECON,ioos:station:SCCF:11:1,2013-01-01T08:00:00Z,26.4679,-82.0631,1.74,17.13,2 
SCCF RECON,ioos:station:SCCF:11:1,2013-01-01T09:00:00Z,26.4679,-82.0631,1.74,17.2,2 
SCCF RECON,ioos:station:SCCF:11:1,2013-01-01T10:00:00Z,26.4679,-82.0631,1.74,17.2,2 
SCCF RECON,ioos:station:SCCF:11:1,2013-01-01T11:00:00Z,26.4679,-82.0631,1.74,17.24,2 
SCCF RECON,ioos:station:SCCF:11:1,2013-01-01T12:00:00Z,26.4679,-82.0631,1.74,17.24,2 
SCCF RECON,ioos:station:SCCF:11:1,2013-01-01T13:00:00Z,26.4679,-82.0631,1.74,17.15,2 
SCCF RECON,ioos:station:SCCF:11:1,2013-01-01T14:00:00Z,26.4679,-82.0631,1.74,17.18,2 
SCCF RECON,ioos:station:SCCF:11:1,2013-01-01T15:00:00Z,26.4679,-82.0631,1.74,17.38,2 
SCCF RECON,ioos:station:SCCF:11:1,2013-01-01T16:00:00Z,26.4679,-82.0631,1.74,17.49,2 
SCCF RECON,ioos:station:SCCF:11:1,2013-01-01T17:00:00Z,26.4679,-82.0631,1.74,18.11,2 
SCCF RECON,ioos:station:SCCF:11:1,2013-01-01T18:00:00Z,26.4679,-82.0631,1.74,18.17,2 
SCCF RECON,ioos:station:SCCF:11:1,2013-01-01T19:00:00Z,26.4679,-82.0631,1.74,18.28,2 
SCCF RECON,ioos:station:SCCF:11:1,2013-01-01T20:00:00Z,26.4679,-82.0631,1.74,18.24,2 
SCCF RECON,ioos:station:SCCF:11:1,2013-01-01T21:00:00Z,26.4679,-82.0631,1.74,18.24,2 
SCCF RECON,ioos:station:SCCF:11:1,2013-01-01T22:00:00Z,26.4679,-82.0631,1.74,18.26,2 
SCCF RECON,ioos:station:SCCF:11:1,2013-01-01T23:00:00Z,26.4679,-82.0631,1.74,18.47,2 
SCCF RECON,ioos:station:SCCF:11:1,2013-01-02T00:00:00Z,26.4679,-82.0631,1.74,18.53,2 
SCCF RECON,ioos:station:SCCF:11:1,2013-01-02T01:00:00Z,26.4679,-82.0631,1.74,18.74,2 
SCCF RECON,ioos:station:SCCF:11:1,2013-01-02T02:00:00Z,26.4679,-82.0631,1.74,18.64,2 
SCCF RECON,ioos:station:SCCF:11:1,2013-01-02T03:00:00Z,26.4679,-82.0631,1.74,18.73,2 
SCCF RECON,ioos:station:SCCF:11:1,2013-01-02T04:00:00Z,26.4679,-82.0631,1.74,18.65,2 
SCCF RECON,ioos:station:SCCF:11:1,2013-01-02T05:00:00Z,26.4679,-82.0631,1.74,18.44,2 
SCCF RECON,ioos:station:SCCF:11:1,2013-01-02T06:00:00Z,26.4679,-82.0631,1.74,18.55,2 
SCCF RECON,ioos:station:SCCF:11:1,2013-01-02T07:00:00Z,26.4679,-82.0631,1.74,18.51,2 
SCCF RECON,ioos:station:SCCF:11:1,2013-01-02T08:00:00Z,26.4679,-82.0631,1.74,18.42,2 
SCCF RECON,ioos:station:SCCF:11:1,2013-01-02T09:00:00Z,26.4679,-82.0631,1.74,18.41,2 
SCCF RECON,ioos:station:SCCF:11:1,2013-01-02T10:00:00Z,26.4679,-82.0631,1.74,18.23,2 
SCCF RECON,ioos:station:SCCF:11:1,2013-01-02T11:00:00Z,26.4679,-82.0631,1.74,18.31,2 
SCCF RECON,ioos:station:SCCF:11:1,2013-01-02T12:00:00Z,26.4679,-82.0631,1.74,18.4,2 
SCCF RECON,ioos:station:SCCF:11:1,2013-01-02T13:00:00Z,26.4679,-82.0631,1.74,18.4,2 
SCCF RECON,ioos:station:SCCF:11:1,2013-01-02T14:00:00Z,26.4679,-82.0631,1.74,18.43,2 
SCCF RECON,ioos:station:SCCF:11:1,2013-01-02T15:00:00Z,26.4679,-82.0631,1.74,18.6,2 
SCCF RECON,ioos:station:SCCF:11:1,2013-01-02T16:00:00Z,26.4679,-82.0631,1.74,18.74,2 
SCCF RECON,ioos:station:SCCF:11:1,2013-01-02T17:00:00Z,26.4679,-82.0631,1.74,18.92,2 
SCCF RECON,ioos:station:SCCF:11:1,2013-01-02T18:00:00Z,26.4679,-82.0631,1.74,19.42,2 
SCCF RECON,ioos:station:SCCF:11:1,2013-01-02T19:00:00Z,26.4679,-82.0631,1.74,19.31,2 
SCCF RECON,ioos:station:SCCF:11:1,2013-01-02T20:00:00Z,26.4679,-82.0631,1.74,19.53,2 
SCCF RECON,ioos:station:SCCF:11:1,2013-01-02T21:00:00Z,26.4679,-82.0631,1.74,18.97,2 
SCCF RECON,ioos:station:SCCF:11:1,2013-01-02T22:00:00Z,26.4679,-82.0631,1.74,19.07,2 
SCCF RECON,ioos:station:SCCF:11:1,2013-01-02T23:00:00Z,26.4679,-82.0631,1.74,19.42,2 
SCCF RECON,ioos:station:SCCF:11:1,2013-01-03T00:00:00Z,26.4679,-82.0631,1.74,19.9,2 
SCCF RECON,ioos:station:SCCF:11:1,2013-01-03T01:00:00Z,26.4679,-82.0631,1.74,19.99,2 
SCCF RECON,ioos:station:SCCF:11:1,2013-01-03T02:00:00Z,26.4679,-82.0631,1.74,20.06,2 
SCCF RECON,ioos:station:SCCF:11:1,2013-01-03T03:00:00Z,26.4679,-82.0631,1.74,19.95,2 
SCCF RECON,ioos:station:SCCF:11:1,2013-01-03T04:00:00Z,26.4679,-82.0631,1.74,19.95,2 
SCCF RECON,ioos:station:SCCF:11:1,2013-01-03T05:00:00Z,26.4679,-82.0631,1.74,19.24,2 
SCCF RECON,ioos:station:SCCF:11:1,2013-01-03T06:00:00Z,26.4679,-82.0631,1.74,19.67,2 
SCCF RECON,ioos:station:SCCF:11:1,2013-01-03T07:00:00Z,26.4679,-82.0631,1.74,19.58,2 
SCCF RECON,ioos:station:SCCF:11:1,2013-01-03T08:00:00Z,26.4679,-82.0631,1.74,19.36,2 
SCCF RECON,ioos:station:SCCF:11:1,2013-01-03T09:00:00Z,26.4679,-82.0631,1.74,19.31,2 
SCCF RECON,ioos:station:SCCF:11:1,2013-01-03T10:00:00Z,26.4679,-82.0631,1.74,19.49,2 
SCCF RECON,ioos:station:SCCF:11:1,2013-01-03T11:00:00Z,26.4679,-82.0631,1.74,19.37,2 
SCCF RECON,ioos:station:SCCF:11:1,2013-01-03T12:00:00Z,26.4679,-82.0631,1.74,19.34,2 
SCCF RECON,ioos:station:SCCF:11:1,2013-01-03T13:00:00Z,26.4679,-82.0631,1.74,19.43,2 
SCCF RECON,ioos:station:SCCF:11:1,2013-01-03T14:00:00Z,26.4679,-82.0631,1.74,19.51,2 
SCCF RECON,ioos:station:SCCF:11:1,2013-01-03T15:00:00Z,26.4679,-82.0631,1.74,19.62,2 
SCCF RECON,ioos:station:SCCF:11:1,2013-01-03T16:00:00Z,26.4679,-82.0631,1.74,19.88,2 
SCCF RECON,ioos:station:SCCF:11:1,2013-01-03T17:00:00Z,26.4679,-82.0631,1.74,19.95,2 
SCCF RECON,ioos:station:SCCF:11:1,2013-01-03T18:00:00Z,26.4679,-82.0631,1.74,20.26,2 
SCCF RECON,ioos:station:SCCF:11:1,2013-01-03T19:00:00Z,26.4679,-82.0631,1.74,20.62,2 
SCCF RECON,ioos:station:SCCF:11:1,2013-01-03T20:00:00Z,26.4679,-82.0631,1.74,20.14,2 
SCCF RECON,ioos:station:SCCF:11:1,2013-01-03T21:00:00Z,26.4679,-82.0631,1.74,19.99,2 
SCCF RECON,ioos:station:SCCF:11:1,2013-01-03T22:00:00Z,26.4679,-82.0631,1.74,19.95,2 
SCCF RECON,ioos:station:SCCF:11:1,2013-01-03T23:00:00Z,26.4679,-82.0631,1.74,19.97,2 
SCCF RECON,ioos:station:SCCF:11:1,2013-01-04T00:00:00Z,26.4679,-82.0631,1.74,20.47,2 
SCCF RECON,ioos:station:SCCF:11:1,2013-01-04T01:00:00Z,26.4679,-82.0631,1.74,20.92,2 
SCCF RECON,ioos:station:SCCF:11:1,2013-01-04T02:00:00Z,26.4679,-82.0631,1.74,21.02,2 
SCCF RECON,ioos:station:SCCF:11:1,2013-01-04T03:00:00Z,26.4679,-82.0631,1.74,20.75,2 
SCCF RECON,ioos:station:SCCF:11:1,2013-01-04T04:00:00Z,26.4679,-82.0631,1.74,21.1,2 
SCCF RECON,ioos:station:SCCF:11:1,2013-01-04T05:00:00Z,26.4679,-82.0631,1.74,20.43,2 
SCCF RECON,ioos:station:SCCF:11:1,2013-01-04T06:00:00Z,26.4679,-82.0631,1.74,20.57,2 
SCCF RECON,ioos:station:SCCF:11:1,2013-01-04T07:00:00Z,26.4679,-82.0631,1.74,20.59,2 
SCCF RECON,ioos:station:SCCF:11:1,2013-01-04T08:00:00Z,26.4679,-82.0631,1.74,20.43,2 
SCCF RECON,ioos:station:SCCF:11:1,2013-01-04T09:00:00Z,26.4679,-82.0631,1.74,20.35,2 
SCCF RECON,ioos:station:SCCF:11:1,2013-01-04T10:00:00Z,26.4679,-82.0631,1.74,20.32,2 
SCCF RECON,ioos:station:SCCF:11:1,2013-01-04T11:00:00Z,26.4679,-82.0631,1.74,20.33,2 
SCCF RECON,ioos:station:SCCF:11:1,2013-01-04T12:00:00Z,26.4679,-82.0631,1.74,20.3,2 
SCCF RECON,ioos:station:SCCF:11:1,2013-01-04T13:00:00Z,26.4679,-82.0631,1.74,20.51,2 
SCCF RECON,ioos:station:SCCF:11:1,2013-01-04T14:00:00Z,26.4679,-82.0631,1.74,20.58,2 
SCCF RECON,ioos:station:SCCF:11:1,2013-01-04T15:00:00Z,26.4679,-82.0631,1.74,20.72,2 
SCCF RECON,ioos:station:SCCF:11:1,2013-01-04T16:00:00Z,26.4679,-82.0631,1.74,20.9,2 
SCCF RECON,ioos:station:SCCF:11:1,2013-01-04T17:00:00Z,26.4679,-82.0631,1.74,21.2,2 
SCCF RECON,ioos:station:SCCF:11:1,2013-01-04T18:00:00Z,26.4679,-82.0631,1.74,21.07,2 
SCCF RECON,ioos:station:SCCF:11:1,2013-01-04T19:00:00Z,26.4679,-82.0631,1.74,21.06,2 
SCCF RECON,ioos:station:SCCF:11:1,2013-01-04T20:00:00Z,26.4679,-82.0631,1.74,21.01,2 
SCCF RECON,ioos:station:SCCF:11:1,2013-01-04T21:00:00Z,26.4679,-82.0631,1.74,20.94,2 
SCCF RECON,ioos:station:SCCF:11:1,2013-01-04T22:00:00Z,26.4679,-82.0631,1.74,20.88,2 
SCCF RECON,ioos:station:SCCF:11:1,2013-01-04T23:00:00Z,26.4679,-82.0631,1.74,20.97,2 
SCCF RECON,ioos:station:SCCF:11:1,2013-01-05T00:00:00Z,26.4679,-82.0631,1.74,21.07,2 
SCCF RECON,ioos:station:SCCF:11:1,2013-01-05T01:00:00Z,26.4679,-82.0631,1.74,21.0,2 
SCCF RECON,ioos:station:SCCF:11:1,2013-01-05T02:00:00Z,26.4679,-82.0631,1.74,21.11,2 
SCCF RECON,ioos:station:SCCF:11:1,2013-01-05T03:00:00Z,26.4679,-82.0631,1.74,21.35,2 
SCCF RECON,ioos:station:SCCF:11:1,2013-01-05T04:00:00Z,26.4679,-82.0631,1.74,21.3,2 
SCCF RECON,ioos:station:SCCF:11:1,2013-01-05T05:00:00Z,26.4679,-82.0631,1.74,21.22,2 
SCCF RECON,ioos:station:SCCF:11:1,2013-01-05T06:00:00Z,26.4679,-82.0631,1.74,21.17,2 
SCCF RECON,ioos:station:SCCF:11:1,2013-01-05T07:00:00Z,26.4679,-82.0631,1.74,20.84,2 
SCCF RECON,ioos:station:SCCF:11:1,2013-01-05T08:00:00Z,26.4679,-82.0631,1.74,20.65,2 
SCCF RECON,ioos:station:SCCF:11:1,2013-01-05T09:00:00Z,26.4679,-82.0631,1.74,20.67,2 
SCCF RECON,ioos:station:SCCF:11:1,2013-01-05T10:00:00Z,26.4679,-82.0631,1.74,20.61,2 
SCCF RECON,ioos:station:SCCF:11:1,2013-01-05T11:00:00Z,26.4679,-82.0631,1.74,20.57,2 
SCCF RECON,ioos:station:SCCF:11:1,2013-01-05T12:00:00Z,26.4679,-82.0631,1.74,20.55,2 
SCCF RECON,ioos:station:SCCF:11:1,2013-01-05T13:00:00Z,26.4679,-82.0631,1.74,20.45,2 
SCCF RECON,ioos:station:SCCF:11:1,2013-01-05T14:00:00Z,26.4679,-82.0631,1.74,20.4,2 
SCCF RECON,ioos:station:SCCF:11:1,2013-01-05T15:00:00Z,26.4679,-82.0631,1.74,20.42,2 
SCCF RECON,ioos:station:SCCF:11:1,2013-01-05T16:00:00Z,26.4679,-82.0631,1.74,20.7,2 
SCCF RECON,ioos:station:SCCF:11:1,2013-01-05T17:00:00Z,26.4679,-82.0631,1.74,20.75,2 
SCCF RECON,ioos:station:SCCF:11:1,2013-01-05T18:00:00Z,26.4679,-82.0631,1.74,21.18,2 
SCCF RECON,ioos:station:SCCF:11:1,2013-01-05T19:00:00Z,26.4679,-82.0631,1.74,20.99,2 
SCCF RECON,ioos:station:SCCF:11:1,2013-01-05T20:00:00Z,26.4679,-82.0631,1.74,21.38,2 
SCCF RECON,ioos:station:SCCF:11:1,2013-01-05T21:00:00Z,26.4679,-82.0631,1.74,22.07,2 
SCCF RECON,ioos:station:SCCF:11:1,2013-01-05T22:00:00Z,26.4679,-82.0631,1.74,21.78,2 
SCCF RECON,ioos:station:SCCF:11:1,2013-01-05T23:00:00Z,26.4679,-82.0631,1.74,21.36,2 
SCCF RECON,ioos:station:SCCF:11:1,2013-01-06T00:00:00Z,26.4679,-82.0631,1.74,21.36,2 
SCCF RECON,ioos:station:SCCF:11:1,2013-01-06T01:00:00Z,26.4679,-82.0631,1.74,21.37,2 
SCCF RECON,ioos:station:SCCF:11:1,2013-01-06T02:00:00Z,26.4679,-82.0631,1.74,21.58,2 
SCCF RECON,ioos:station:SCCF:11:1,2013-01-06T03:00:00Z,26.4679,-82.0631,1.74,21.75,2 
SCCF RECON,ioos:station:SCCF:11:1,2013-01-06T04:00:00Z,26.4679,-82.0631,1.74,21.74,2 
SCCF RECON,ioos:station:SCCF:11:1,2013-01-06T05:00:00Z,26.4679,-82.0631,1.74,21.81,2 
SCCF RECON,ioos:station:SCCF:11:1,2013-01-06T06:00:00Z,26.4679,-82.0631,1.74,21.76,2 
SCCF RECON,ioos:station:SCCF:11:1,2013-01-06T07:00:00Z,26.4679,-82.0631,1.74,21.72,2 
SCCF RECON,ioos:station:SCCF:11:1,2013-01-06T08:00:00Z,26.4679,-82.0631,1.74,21.53,2 
SCCF RECON,ioos:station:SCCF:11:1,2013-01-06T09:00:00Z,26.4679,-82.0631,1.74,21.55,2 
SCCF RECON,ioos:station:SCCF:11:1,2013-01-06T10:00:00Z,26.4679,-82.0631,1.74,21.0,2 
SCCF RECON,ioos:station:SCCF:11:1,2013-01-06T11:00:00Z,26.4679,-82.0631,1.74,20.88,2 
SCCF RECON,ioos:station:SCCF:11:1,2013-01-06T12:00:00Z,26.4679,-82.0631,1.74,20.9,2 
SCCF RECON,ioos:station:SCCF:11:1,2013-01-06T13:00:00Z,26.4679,-82.0631,1.74,20.96,2 
SCCF RECON,ioos:station:SCCF:11:1,2013-01-06T14:00:00Z,26.4679,-82.0631,1.74,20.95,2 
SCCF RECON,ioos:station:SCCF:11:1,2013-01-06T15:00:00Z,26.4679,-82.0631,1.74,20.97,2 
SCCF RECON,ioos:station:SCCF:11:1,2013-01-06T16:00:00Z,26.4679,-82.0631,1.74,21.06,2 
SCCF RECON,ioos:station:SCCF:11:1,2013-01-06T17:00:00Z,26.4679,-82.0631,1.74,21.39,2 
SCCF RECON,ioos:station:SCCF:11:1,2013-01-06T18:00:00Z,26.4679,-82.0631,1.74,21.85,2 
SCCF RECON,ioos:station:SCCF:11:1,2013-01-06T19:00:00Z,26.4679,-82.0631,1.74,21.56,2 
SCCF RECON,ioos:station:SCCF:11:1,2013-01-06T20:00:00Z,26.4679,-82.0631,1.74,21.99,2 
SCCF RECON,ioos:station:SCCF:11:1,2013-01-06T21:00:00Z,26.4679,-82.0631,1.74,22.27,2 
SCCF RECON,ioos:station:SCCF:11:1,2013-01-06T22:00:00Z,26.4679,-82.0631,1.74,21.86,2 
SCCF RECON,ioos:station:SCCF:11:1,2013-01-06T23:00:00Z,26.4679,-82.0631,1.74,21.1,2 
SCCF RECON,ioos:station:SCCF:11:1,2013-01-07T00:00:00Z,26.4679,-82.0631,1.74,21.05,2 
SCCF RECON,ioos:station:SCCF:11:1,2013-01-07T01:00:00Z,26.4679,-82.0631,1.74,20.99,2 
SCCF RECON,ioos:station:SCCF:11:1,2013-01-07T02:00:00Z,26.4679,-82.0631,1.74,22.13,2 
SCCF RECON,ioos:station:SCCF:11:1,2013-01-07T03:00:00Z,26.4679,-82.0631,1.74,22.13,2 
SCCF RECON,ioos:station:SCCF:11:1,2013-01-07T04:00:00Z,26.4679,-82.0631,1.74,22.32,2 
SCCF RECON,ioos:station:SCCF:11:1,2013-01-07T05:00:00Z,26.4679,-82.0631,1.74,22.36,2 
SCCF RECON,ioos:station:SCCF:11:1,2013-01-07T06:00:00Z,26.4679,-82.0631,1.74,22.39,2 
SCCF RECON,ioos:station:SCCF:11:1,2013-01-07T07:00:00Z,26.4679,-82.0631,1.74,22.47,2 
SCCF RECON,ioos:station:SCCF:11:1,2013-01-07T08:00:00Z,26.4679,-82.0631,1.74,22.46,2 
SCCF RECON,ioos:station:SCCF:11:1,2013-01-07T09:00:00Z,26.4679,-82.0631,1.74,22.03,2 
SCCF RECON,ioos:station:SCCF:11:1,2013-01-07T10:00:00Z,26.4679,-82.0631,1.74,22.09,2 
SCCF RECON,ioos:station:SCCF:11:1,2013-01-07T11:00:00Z,26.4679,-82.0631,1.74,22.14,2 
SCCF RECON,ioos:station:SCCF:11:1,2013-01-07T12:00:00Z,26.4679,-82.0631,1.74,21.65,2 
SCCF RECON,ioos:station:SCCF:11:1,2013-01-07T13:00:00Z,26.4679,-82.0631,1.74,21.62,2 
SCCF RECON,ioos:station:SCCF:11:1,2013-01-07T14:00:00Z,26.4679,-82.0631,1.74,21.7,2 
SCCF RECON,ioos:station:SCCF:11:1,2013-01-07T15:00:00Z,26.4679,-82.0631,1.74,21.75,2 
SCCF RECON,ioos:station:SCCF:11:1,2013-01-07T16:00:00Z,26.4679,-82.0631,1.74,21.75,2 
SCCF RECON,ioos:station:SCCF:11:1,2013-01-07T17:00:00Z,26.4679,-82.0631,1.74,21.85,2 
SCCF RECON,ioos:station:SCCF:11:1,2013-01-07T18:00:00Z,26.4679,-82.0631,1.74,21.79,2 
SCCF RECON,ioos:station:SCCF:11:1,2013-01-07T19:00:00Z,26.4679,-82.0631,1.74,22.0,2 
SCCF RECON,ioos:station:SCCF:11:1,2013-01-07T20:00:00Z,26.4679,-82.0631,1.74,22.17,2 
SCCF RECON,ioos:station:SCCF:11:1,2013-01-07T21:00:00Z,26.4679,-82.0631,1.74,21.96,2 
SCCF RECON,ioos:station:SCCF:11:1,2013-01-07T22:00:00Z,26.4679,-82.0631,1.74,21.92,2 
SCCF RECON,ioos:station:SCCF:11:1,2013-01-07T23:00:00Z,26.4679,-82.0631,1.74,21.89,2 
SCCF RECON,ioos:station:SCCF:11:1,2013-01-08T00:00:00Z,26.4679,-82.0631,1.74,21.9,2 
SCCF RECON,ioos:station:SCCF:11:1,2013-01-08T01:00:00Z,26.4679,-82.0631,1.74,21.86,2 
SCCF RECON,ioos:station:SCCF:11:1,2013-01-08T02:00:00Z,26.4679,-82.0631,1.74,21.79,2 
SCCF RECON,ioos:station:SCCF:11:1,2013-01-08T03:00:00Z,26.4679,-82.0631,1.74,21.78,2 
SCCF RECON,ioos:station:SCCF:11:1,2013-01-08T04:00:00Z,26.4679,-82.0631,1.74,21.84,2 
SCCF RECON,ioos:station:SCCF:11:1,2013-01-08T05:00:00Z,26.4679,-82.0631,1.74,22.06,2 
SCCF RECON,ioos:station:SCCF:11:1,2013-01-08T06:00:00Z,26.4679,-82.0631,1.74,22.07,2 
SCCF RECON,ioos:station:SCCF:11:1,2013-01-08T07:00:00Z,26.4679,-82.0631,1.74,22.07,2 
SCCF RECON,ioos:station:SCCF:11:1,2013-01-08T08:00:00Z,26.4679,-82.0631,1.74,22.02,2 
SCCF RECON,ioos:station:SCCF:11:1,2013-01-08T09:00:00Z,26.4679,-82.0631,1.74,21.98,2 
SCCF RECON,ioos:station:SCCF:11:1,2013-01-08T10:00:00Z,26.4679,-82.0631,1.74,21.89,2 
SCCF RECON,ioos:station:SCCF:11:1,2013-01-08T11:00:00Z,26.4679,-82.0631,1.74,21.56,2 
SCCF RECON,ioos:station:SCCF:11:1,2013-01-08T12:00:00Z,26.4679,-82.0631,1.74,21.57,2 
SCCF RECON,ioos:station:SCCF:11:1,2013-01-08T13:00:00Z,26.4679,-82.0631,1.74,21.42,2 
SCCF RECON,ioos:station:SCCF:11:1,2013-01-08T14:00:00Z,26.4679,-82.0631,1.74,21.56,2 
SCCF RECON,ioos:station:SCCF:11:1,2013-01-08T15:00:00Z,26.4679,-82.0631,1.74,21.54,2 
SCCF RECON,ioos:station:SCCF:11:1,2013-01-08T16:00:00Z,26.4679,-82.0631,1.74,21.71,2 
SCCF RECON,ioos:station:SCCF:11:1,2013-01-08T17:00:00Z,26.4679,-82.0631,1.74,21.72,2 
SCCF RECON,ioos:station:SCCF:11:1,2013-01-08T18:00:00Z,26.4679,-82.0631,1.74,21.66,2 
SCCF RECON,ioos:station:SCCF:11:1,2013-01-08T19:00:00Z,26.4679,-82.0631,1.74,22.11,2 
SCCF RECON,ioos:station:SCCF:11:1,2013-01-08T20:00:00Z,26.4679,-82.0631,1.74,22.58,2 
SCCF RECON,ioos:station:SCCF:11:1,2013-01-08T21:00:00Z,26.4679,-82.0631,1.74,22.66,2 
SCCF RECON,ioos:station:SCCF:11:1,2013-01-08T22:00:00Z,26.4679,-82.0631,1.74,23.84,2 
SCCF RECON,ioos:station:SCCF:11:1,2013-01-08T23:00:00Z,26.4679,-82.0631,1.74,23.34,2 
SCCF RECON,ioos:station:SCCF:11:1,2013-01-09T00:00:00Z,26.4679,-82.0631,1.74,23.44,2 
SCCF RECON,ioos:station:SCCF:11:1,2013-01-09T01:00:00Z,26.4679,-82.0631,1.74,22.86,2 
SCCF RECON,ioos:station:SCCF:11:1,2013-01-09T02:00:00Z,26.4679,-82.0631,1.74,21.88,2 
SCCF RECON,ioos:station:SCCF:11:1,2013-01-09T03:00:00Z,26.4679,-82.0631,1.74,21.75,2 
SCCF RECON,ioos:station:SCCF:11:1,2013-01-09T04:00:00Z,26.4679,-82.0631,1.74,21.49,2 
SCCF RECON,ioos:station:SCCF:11:1,2013-01-09T05:00:00Z,26.4679,-82.0631,1.74,22.57,2 
SCCF RECON,ioos:station:SCCF:11:1,2013-01-09T06:00:00Z,26.4679,-82.0631,1.74,22.84,2 
SCCF RECON,ioos:station:SCCF:11:1,2013-01-09T07:00:00Z,26.4679,-82.0631,1.74,22.77,2 
SCCF RECON,ioos:station:SCCF:11:1,2013-01-09T08:00:00Z,26.4679,-82.0631,1.74,22.75,2 
SCCF RECON,ioos:station:SCCF:11:1,2013-01-09T09:00:00Z,26.4679,-82.0631,1.74,22.79,2 
SCCF RECON,ioos:station:SCCF:11:1,2013-01-09T10:00:00Z,26.4679,-82.0631,1.74,22.8,2 
SCCF RECON,ioos:station:SCCF:11:1,2013-01-09T11:00:00Z,26.4679,-82.0631,1.74,22.78,2 
SCCF RECON,ioos:station:SCCF:11:1,2013-01-09T12:00:00Z,26.4679,-82.0631,1.74,22.43,2 
SCCF RECON,ioos:station:SCCF:11:1,2013-01-09T13:00:00Z,26.4679,-82.0631,1.74,22.39,2 
SCCF RECON,ioos:station:SCCF:11:1,2013-01-09T14:00:00Z,26.4679,-82.0631,1.74,22.34,2 
SCCF RECON,ioos:station:SCCF:11:1,2013-01-09T15:00:00Z,26.4679,-82.0631,1.74,22.46,2 
SCCF RECON,ioos:station:SCCF:11:1,2013-01-09T16:00:00Z,26.4679,-82.0631,1.74,22.53,2 
SCCF RECON,ioos:station:SCCF:11:1,2013-01-09T17:00:00Z,26.4679,-82.0631,1.74,22.28,2 
SCCF RECON,ioos:station:SCCF:11:1,2013-01-09T18:00:00Z,26.4679,-82.0631,1.74,22.35,2 
SCCF RECON,ioos:station:SCCF:11:1,2013-01-09T19:00:00Z,26.4679,-82.0631,1.74,22.2,2 
SCCF RECON,ioos:station:SCCF:11:1,2013-01-09T20:00:00Z,26.4679,-82.0631,1.74,23.12,2 
SCCF RECON,ioos:station:SCCF:11:1,2013-01-09T21:00:00Z,26.4679,-82.0631,1.74,23.25,2 
SCCF RECON,ioos:station:SCCF:11:1,2013-01-09T22:00:00Z,26.4679,-82.0631,1.74,23.32,2 
SCCF RECON,ioos:station:SCCF:11:1,2013-01-09T23:00:00Z,26.4679,-82.0631,1.74,23.31,2 
SCCF RECON,ioos:station:SCCF:11:1,2013-01-10T00:00:00Z,26.4679,-82.0631,1.74,23.23,2 
SCCF RECON,ioos:station:SCCF:11:1,2013-01-10T01:00:00Z,26.4679,-82.0631,1.74,22.88,2 
SCCF RECON,ioos:station:SCCF:11:1,2013-01-10T02:00:00Z,26.4679,-82.0631,1.74,22.38,2 
SCCF RECON,ioos:station:SCCF:11:1,2013-01-10T03:00:00Z,26.4679,-82.0631,1.74,22.27,2 
SCCF RECON,ioos:station:SCCF:11:1,2013-01-10T04:00:00Z,26.4679,-82.0631,1.74,22.16,2 
SCCF RECON,ioos:station:SCCF:11:1,2013-01-10T05:00:00Z,26.4679,-82.0631,1.74,22.23,2 
SCCF RECON,ioos:station:SCCF:11:1,2013-01-10T06:00:00Z,26.4679,-82.0631,1.74,22.77,2 
SCCF RECON,ioos:station:SCCF:11:1,2013-01-10T07:00:00Z,26.4679,-82.0631,1.74,23.06,2 
SCCF RECON,ioos:station:SCCF:11:1,2013-01-10T08:00:00Z,26.4679,-82.0631,1.74,23.14,2 
SCCF RECON,ioos:station:SCCF:11:1,2013-01-10T09:00:00Z,26.4679,-82.0631,1.74,23.14,2 
SCCF RECON,ioos:station:SCCF:11:1,2013-01-10T10:00:00Z,26.4679,-82.0631,1.74,23.15,2 
SCCF RECON,ioos:station:SCCF:11:1,2013-01-10T11:00:00Z,26.4679,-82.0631,1.74,23.12,2 
SCCF RECON,ioos:station:SCCF:11:1,2013-01-10T12:00:00Z,26.4679,-82.0631,1.74,23.01,2 
SCCF RECON,ioos:station:SCCF:11:1,2013-01-10T13:00:00Z,26.4679,-82.0631,1.74,22.6,2 
SCCF RECON,ioos:station:SCCF:11:1,2013-01-10T14:00:00Z,26.4679,-82.0631,1.74,22.78,2 
SCCF RECON,ioos:station:SCCF:11:1,2013-01-10T15:00:00Z,26.4679,-82.0631,1.74,22.87,2 
SCCF RECON,ioos:station:SCCF:11:1,2013-01-10T16:00:00Z,26.4679,-82.0631,1.74,22.87,2 
SCCF RECON,ioos:station:SCCF:11:1,2013-01-10T17:00:00Z,26.4679,-82.0631,1.74,22.91,2 
SCCF RECON,ioos:station:SCCF:11:1,2013-01-10T18:00:00Z,26.4679,-82.0631,1.74,22.65,2 
SCCF RECON,ioos:station:SCCF:11:1,2013-01-10T19:00:00Z,26.4679,-82.0631,1.74,22.69,2 
SCCF RECON,ioos:station:SCCF:11:1,2013-01-10T20:00:00Z,26.4679,-82.0631,1.74,22.66,2 
SCCF RECON,ioos:station:SCCF:11:1,2013-01-10T21:00:00Z,26.4679,-82.0631,1.74,22.92,2 
SCCF RECON,ioos:station:SCCF:11:1,2013-01-10T22:00:00Z,26.4679,-82.0631,1.74,23.94,2 
SCCF RECON,ioos:station:SCCF:11:1,2013-01-10T23:00:00Z,26.4679,-82.0631,1.74,23.93,2 
SCCF RECON,ioos:station:SCCF:11:1,2013-01-11T00:00:00Z,26.4679,-82.0631,1.74,23.63,2 
SCCF RECON,ioos:station:SCCF:11:1,2013-01-11T01:00:00Z,26.4679,-82.0631,1.74,22.77,2 
SCCF RECON,ioos:station:SCCF:11:1,2013-01-11T02:00:00Z,26.4679,-82.0631,1.74,22.55,2 
SCCF RECON,ioos:station:SCCF:11:1,2013-01-11T03:00:00Z,26.4679,-82.0631,1.74,22.51,2 
SCCF RECON,ioos:station:SCCF:11:1,2013-01-11T04:00:00Z,26.4679,-82.0631,1.74,22.49,2 
SCCF RECON,ioos:station:SCCF:11:1,2013-01-11T05:00:00Z,26.4679,-82.0631,1.74,22.49,2 
SCCF RECON,ioos:station:SCCF:11:1,2013-01-11T06:00:00Z,26.4679,-82.0631,1.74,22.46,2 
SCCF RECON,ioos:station:SCCF:11:1,2013-01-11T07:00:00Z,26.4679,-82.0631,1.74,22.75,2 
SCCF RECON,ioos:station:SCCF:11:1,2013-01-11T08:00:00Z,26.4679,-82.0631,1.74,22.84,2 
SCCF RECON,ioos:station:SCCF:11:1,2013-01-11T09:00:00Z,26.4679,-82.0631,1.74,22.88,2 
SCCF RECON,ioos:station:SCCF:11:1,2013-01-11T10:00:00Z,26.4679,-82.0631,1.74,22.82,2 
SCCF RECON,ioos:station:SCCF:11:1,2013-01-11T11:00:00Z,26.4679,-82.0631,1.74,22.79,2 
SCCF RECON,ioos:station:SCCF:11:1,2013-01-11T12:00:00Z,26.4679,-82.0631,1.74,22.74,2 
SCCF RECON,ioos:station:SCCF:11:1,2013-01-11T13:00:00Z,26.4679,-82.0631,1.74,22.62,2 
SCCF RECON,ioos:station:SCCF:11:1,2013-01-11T14:00:00Z,26.4679,-82.0631,1.74,22.51,2 
SCCF RECON,ioos:station:SCCF:11:1,2013-01-11T15:00:00Z,26.4679,-82.0631,1.74,22.65,2 
SCCF RECON,ioos:station:SCCF:11:1,2013-01-11T16:00:00Z,26.4679,-82.0631,1.74,22.78,2 
SCCF RECON,ioos:station:SCCF:11:1,2013-01-11T17:00:00Z,26.4679,-82.0631,1.74,22.89,2 
SCCF RECON,ioos:station:SCCF:11:1,2013-01-11T18:00:00Z,26.4679,-82.0631,1.74,22.98,2 
SCCF RECON,ioos:station:SCCF:11:1,2013-01-11T19:00:00Z,26.4679,-82.0631,1.74,22.98,2 
SCCF RECON,ioos:station:SCCF:11:1,2013-01-11T20:00:00Z,26.4679,-82.0631,1.74,23.1,2 
SCCF RECON,ioos:station:SCCF:11:1,2013-01-11T21:00:00Z,26.4679,-82.0631,1.74,23.82,2 
SCCF RECON,ioos:station:SCCF:11:1,2013-01-11T22:00:00Z,26.4679,-82.0631,1.74,23.93,2 
SCCF RECON,ioos:station:SCCF:11:1,2013-01-11T23:00:00Z,26.4679,-82.0631,1.74,23.95,2 
SCCF RECON,ioos:station:SCCF:11:1,2013-01-12T00:00:00Z,26.4679,-82.0631,1.74,23.96,2 
SCCF RECON,ioos:station:SCCF:11:1,2013-01-12T01:00:00Z,26.4679,-82.0631,1.74,23.32,2 
SCCF RECON,ioos:station:SCCF:11:1,2013-01-12T02:00:00Z,26.4679,-82.0631,1.74,22.79,2 
SCCF RECON,ioos:station:SCCF:11:1,2013-01-12T03:00:00Z,26.4679,-82.0631,1.74,22.65,2 
SCCF RECON,ioos:station:SCCF:11:1,2013-01-12T04:00:00Z,26.4679,-82.0631,1.74,22.57,2 
SCCF RECON,ioos:station:SCCF:11:1,2013-01-12T05:00:00Z,26.4679,-82.0631,1.74,22.62,2 
SCCF RECON,ioos:station:SCCF:11:1,2013-01-12T06:00:00Z,26.4679,-82.0631,1.74,22.58,2 
SCCF RECON,ioos:station:SCCF:11:1,2013-01-12T07:00:00Z,26.4679,-82.0631,1.74,22.72,2 
SCCF RECON,ioos:station:SCCF:11:1,2013-01-12T08:00:00Z,26.4679,-82.0631,1.74,22.97,2 
SCCF RECON,ioos:station:SCCF:11:1,2013-01-12T09:00:00Z,26.4679,-82.0631,1.74,22.96,2 
SCCF RECON,ioos:station:SCCF:11:1,2013-01-12T10:00:00Z,26.4679,-82.0631,1.74,22.94,2 
SCCF RECON,ioos:station:SCCF:11:1,2013-01-12T11:00:00Z,26.4679,-82.0631,1.74,22.88,2 
SCCF RECON,ioos:station:SCCF:11:1,2013-01-12T12:00:00Z,26.4679,-82.0631,1.74,22.84,2 
SCCF RECON,ioos:station:SCCF:11:1,2013-01-12T13:00:00Z,26.4679,-82.0631,1.74,22.79,2 